N2PUI Weather Reports


time (UTC)temp
F
wind
direction
speed
knots
gust
knots
rain 1hr
in
rain 24hr
in
rain mn
in
humidity
%
barometer
mb
20260905232945 67 195 0.0 0.0 0.00 0.00 0.00 80 1014.7
20260905232441 67 146 0.0 0.0 0.00 0.00 0.00 79 1014.7
20260905231937 67 131 0.9 0.9 0.00 0.00 0.00 79 1014.7
20260905231432 68 144 0.9 0.9 0.00 0.00 0.00 78 1014.7
20260905230928 68 146 0.9 0.9 0.00 0.00 0.00 77 1014.7
20260905230427 68 31 2.6 2.6 0.00 0.00 0.00 77 1014.7
20260905225925 68 146 0.0 0.0 0.00 0.00 0.00 77 1014.7
20260905225420 68 138 0.0 0.0 0.00 0.00 0.00 77 1014.6
20260905224915 69 45 2.6 2.6 0.00 0.00 0.00 76 1014.5
20260905224411 69 179 0.9 0.9 0.00 0.00 0.00 76 1014.3
20260905223905 69 86 1.7 1.7 0.00 0.00 0.00 76 1014.6
20260905223403 69 229 0.9 1.7 0.00 0.00 0.00 75 1014.5
20260905222858 69 117 0.0 0.9 0.00 0.00 0.00 75 1014.5
20260905222356 69 87 1.7 1.7 0.00 0.00 0.00 74 1014.7
20260905221852 69 142 0.0 0.9 0.00 0.00 0.00 74 1014.6
20260905221349 70 69 1.7 1.7 0.00 0.00 0.00 73 1014.5
20260905220839 70 235 0.9 1.7 0.00 0.00 0.00 72 1014.3
20260905220335 70 173 0.9 0.9 0.00 0.00 0.00 72 1014.1
20260905215834 70 329 2.6 2.6 0.00 0.00 0.00 72 1014.2
20260905215330 71 315 3.5 4.3 0.00 0.00 0.00 71 1014.1
20260905214826 71 30 2.6 2.6 0.00 0.00 0.00 70 1014.0
20260905214321 71 72 0.9 0.9 0.00 0.00 0.00 70 1013.9
20260905213816 72 26 1.7 1.7 0.00 0.00 0.00 69 1013.8
20260905213312 73 142 0.9 0.9 0.00 0.00 0.00 70 1013.7
20260905212807 73 156 0.0 0.0 0.00 0.00 0.00 71 1013.8
20260905212307 73 297 4.3 5.2 0.00 0.00 0.00 68 1013.8
20260905211801 72 199 0.9 0.9 0.00 0.00 0.00 69 1013.8
20260905211256 73 206 2.6 2.6 0.00 0.00 0.00 69 1013.8
20260905210754 72 258 0.9 0.9 0.00 0.00 0.00 69 1013.9
20260905210253 73 233 0.9 1.7 0.00 0.00 0.00 69 1013.6
20260905205751 72 225 1.7 1.7 0.00 0.00 0.00 68 1013.8
20260905205246 72 136 0.9 0.9 0.00 0.00 0.00 70 1013.5
20260905204746 73 164 0.9 0.9 0.00 0.00 0.00 70 1013.6
20260905204242 73 291 1.7 1.7 0.00 0.00 0.00 69 1013.7
20260905203741 73 196 0.0 0.9 0.00 0.00 0.00 69 1013.6
20260905203237 72 357 0.9 2.6 0.00 0.00 0.00 69 1013.6
20260905202732 72 195 0.0 0.9 0.00 0.00 0.00 69 1013.9
20260905202227 72 185 0.0 0.9 0.00 0.00 0.00 70 1013.8
20260905201722 72 130 0.9 0.9 0.00 0.00 0.00 70 1013.9
20260905201217 72 351 2.6 2.6 0.00 0.00 0.00 69 1013.6
20260905200712 73 45 1.7 1.7 0.00 0.00 0.00 67 1013.6
20260905200208 73 173 0.9 0.9 0.00 0.00 0.00 67 1013.7
20260905195706 73 171 0.9 0.9 0.00 0.00 0.00 68 1013.8
20260905195200 73 161 0.0 0.0 0.00 0.00 0.00 66 1013.7
20260905194650 73 198 0.9 0.9 0.00 0.00 0.00 68 1013.4
20260905194149 72 174 0.0 0.9 0.00 0.00 0.00 68 1013.9
20260905193638 71 169 0.0 0.0 0.00 0.00 0.00 70 1013.7
20260905193133 71 147 0.9 0.9 0.00 0.00 0.00 69 1013.8
20260905192629 72 317 3.5 4.3 0.00 0.00 0.00 67 1013.8
20260905192125 73 0 1.7 2.6 0.00 0.00 0.00 65 1013.5
20260905191625 73 238 1.7 2.6 0.00 0.00 0.00 65 1013.7
20260905191123 74 193 0.9 0.9 0.00 0.00 0.00 68 1013.8
20260905190621 73 131 0.0 0.0 0.00 0.00 0.00 66 1013.7
20260905190120 73 337 1.7 2.6 0.00 0.00 0.00 66 1013.8
20260905185619 73 108 1.7 2.6 0.00 0.00 0.00 65 1013.7
20260905185114 74 271 1.7 1.7 0.00 0.00 0.00 62 1013.7
20260905184609 73 214 2.6 2.6 0.00 0.00 0.00 61 1013.7
20260905184108 73 15 2.6 2.6 0.00 0.00 0.00 63 1013.8
20260905183607 74 228 1.7 1.7 0.00 0.00 0.00 65 1013.7
20260905183103 75 10 1.7 1.7 0.00 0.00 0.00 61 1013.5
20260905182602 74 283 1.7 1.7 0.00 0.00 0.00 63 1013.6
20260905182056 73 64 1.7 2.6 0.00 0.00 0.00 65 1013.4
20260905181551 73 176 0.0 0.0 0.00 0.00 0.00 64 1013.7
20260905181050 73 296 3.5 4.3 0.00 0.00 0.00 62 1013.9
20260905180545 74 292 3.5 5.2 0.00 0.00 0.00 65 1013.7
20260905180041 73 359 1.7 2.6 0.00 0.00 0.00 68 1013.6
20260905175539 73 121 0.9 0.9 0.00 0.00 0.00 68 1013.8
20260905175036 72 7 1.7 1.7 0.00 0.00 0.00 66 1013.8
20260905174531 72 325 2.6 4.3 0.00 0.00 0.00 66 1013.9
20260905174026 72 34 2.6 4.3 0.00 0.00 0.00 65 1013.7
20260905173523 72 207 0.9 1.7 0.00 0.00 0.00 68 1013.6
20260905173018 72 224 0.9 0.9 0.00 0.00 0.00 67 1013.8
20260905172516 72 14 3.5 6.1 0.00 0.00 0.00 66 1013.9
20260905172012 73 323 2.6 4.3 0.00 0.00 0.00 65 1013.8
20260905171508 72 255 4.3 4.3 0.00 0.00 0.00 64 1014.0
20260905171003 72 182 0.0 0.0 0.00 0.00 0.00 69 1014.0
20260905170500 71 97 0.9 1.7 0.00 0.00 0.00 70 1014.1
20260905165954 71 359 1.7 1.7 0.00 0.00 0.00 69 1013.9
20260905165449 72 78 0.9 0.9 0.00 0.00 0.00 70 1014.1
20260905164944 70 229 2.6 4.3 0.00 0.00 0.00 68 1014.2
20260905164444 70 323 3.5 5.2 0.00 0.00 0.00 68 1013.9
20260905163939 71 251 2.6 2.6 0.00 0.00 0.00 70 1014.0
20260905163436 71 216 0.9 0.9 0.00 0.00 0.00 69 1014.1
20260905162931 72 284 5.2 6.1 0.00 0.00 0.00 66 1014.1
20260905162426 72 150 0.0 0.9 0.00 0.00 0.00 67 1013.9
20260905161921 71 12 2.6 4.3 0.00 0.00 0.00 67 1013.9
20260905161420 73 61 2.6 2.6 0.00 0.00 0.00 67 1014.3
20260905160918 72 263 2.6 4.3 0.00 0.00 0.00 67 1014.1
20260905160412 73 315 2.6 4.3 0.00 0.00 0.00 67 1014.2
20260905155906 72 277 4.3 6.1 0.00 0.00 0.00 66 1014.2
20260905155401 71 252 6.1 8.7 0.00 0.00 0.00 68 1014.3
20260905154900 72 102 0.9 1.7 0.00 0.00 0.00 68 1014.3
20260905154356 70 226 0.9 1.7 0.00 0.00 0.00 70 1014.3
20260905153851 70 42 2.6 2.6 0.00 0.00 0.00 69 1014.4
20260905153347 71 216 0.9 0.9 0.00 0.00 0.00 69 1014.5
20260905152847 72 331 1.7 2.6 0.00 0.00 0.00 67 1014.4
20260905152346 70 194 1.7 1.7 0.00 0.00 0.00 71 1014.1
20260905151841 71 226 0.9 2.6 0.00 0.00 0.00 71 1014.4
20260905151337 70 250 2.6 5.2 0.00 0.00 0.00 72 1014.4
20260905150837 70 323 1.7 1.7 0.00 0.00 0.00 72 1014.7
20260905150331 70 255 0.9 1.7 0.00 0.00 0.00 73 1014.7
20260905145828 70 323 4.3 5.2 0.00 0.00 0.00 71 1014.4
20260905145323 70 11 2.6 2.6 0.00 0.00 0.00 72 1014.4
20260905144822 70 191 0.9 0.9 0.00 0.00 0.00 73 1014.4
20260905144318 70 281 2.6 2.6 0.00 0.00 0.00 74 1014.3
20260905143816 68 223 1.7 1.7 0.00 0.00 0.00 76 1014.4
20260905143311 69 252 5.2 6.1 0.00 0.00 0.00 77 1014.3
20260905142810 67 231 1.7 2.6 0.00 0.00 0.00 79 1014.5
20260905142306 67 215 2.6 2.6 0.00 0.00 0.00 80 1014.5
20260905141800 67 191 0.9 1.7 0.00 0.00 0.00 81 1014.6
20260905141255 67 348 2.6 2.6 0.00 0.00 0.00 81 1014.4
20260905140751 69 287 4.3 5.2 0.00 0.00 0.00 79 1014.5
20260905140251 69 208 0.9 1.7 0.00 0.00 0.00 79 1014.3
20260905135749 69 276 2.6 2.6 0.00 0.00 0.00 80 1014.5
20260905135245 68 214 2.6 4.3 0.00 0.00 0.00 81 1014.4
20260905134744 68 39 1.7 2.6 0.00 0.00 0.00 82 1014.6
20260905134239 68 283 2.6 4.3 0.00 0.00 0.00 83 1014.5
20260905133734 66 202 1.7 1.7 0.00 0.00 0.00 85 1014.7
20260905133229 66 279 1.7 2.6 0.00 0.00 0.00 86 1014.5
20260905132728 66 21 3.5 4.3 0.00 0.00 0.00 86 1014.7
20260905132224 65 177 0.9 0.9 0.00 0.00 0.00 90 1014.6
20260905131719 64 178 0.9 0.9 0.00 0.00 0.00 94 1014.2
20260905131214 63 161 0.9 0.9 0.00 0.00 0.00 95 1014.4
20260905130713 63 172 0.9 0.9 0.00 0.00 0.00 95 1014.4
20260905130208 62 135 0.9 0.9 0.00 0.00 0.00 95 1014.4
20260905125703 62 182 0.9 0.9 0.00 0.00 0.00 95 1014.8
20260905125158 62 170 0.0 0.0 0.00 0.00 0.00 95 1014.8
20260905124654 62 170 0.0 0.0 0.00 0.00 0.00 95 1014.7
20260905124150 61 170 0.0 0.0 0.00 0.00 0.00 95 1014.9
20260905123645 61 162 0.0 0.0 0.00 0.00 0.00 95 1015.0
20260905123142 60 185 0.0 0.0 0.00 0.00 0.00 95 1015.1
20260905122641 59 199 0.9 0.9 0.00 0.00 0.00 95 1015.0
20260905122136 59 187 0.0 0.0 0.00 0.00 0.00 95 1015.0
20260905121631 59 200 0.9 0.9 0.00 0.00 0.00 95 1014.9
20260905121127 58 180 0.0 0.0 0.00 0.00 0.00 95 1014.9
20260905120625 58 180 0.0 0.0 0.00 0.00 0.00 95 1014.6
20260905120121 58 205 0.9 0.9 0.00 0.00 0.00 95 1014.6
20260905115620 59 180 0.0 0.0 0.00 0.00 0.00 95 1014.7
20260905115115 59 197 0.0 0.0 0.00 0.00 0.00 95 1014.6
20260905114614 59 164 0.0 0.0 0.00 0.00 0.00 95 1014.3
20260905114113 58 129 0.0 0.9 0.00 0.00 0.00 95 1014.1
20260905113609 58 173 0.0 0.0 0.00 0.00 0.00 95 1014.4
20260905113104 58 155 0.0 0.0 0.00 0.00 0.00 95 1014.5
20260905112558 58 212 0.0 0.0 0.00 0.00 0.00 95 1014.3
20260905112054 58 189 0.0 0.0 0.00 0.00 0.00 95 1014.3
20260905111549 58 114 1.7 1.7 0.00 0.00 0.00 95 1014.2
20260905111048 58 67 0.9 1.7 0.00 0.00 0.00 95 1014.0
20260905110547 58 178 0.0 0.0 0.00 0.00 0.00 95 1014.3
20260905110043 58 189 0.0 0.0 0.00 0.00 0.00 95 1014.4
20260905105542 58 207 0.0 0.0 0.00 0.00 0.00 95 1014.1
20260905105042 57 185 0.0 0.0 0.00 0.00 0.00 95 1013.9
20260905104538 57 199 0.0 0.0 0.00 0.00 0.00 95 1013.8
20260905104037 57 192 0.0 0.0 0.00 0.00 0.00 95 1013.7
20260905103533 57 180 0.0 0.0 0.00 0.00 0.00 95 1013.6
20260905103029 57 200 0.0 0.0 0.00 0.00 0.00 95 1013.7
20260905102524 57 189 0.0 0.0 0.00 0.00 0.00 95 1013.8
20260905102021 57 175 0.0 0.0 0.00 0.00 0.00 95 1013.5
20260905101519 57 182 0.0 0.0 0.00 0.00 0.00 95 1013.8
20260905101017 57 153 0.0 0.0 0.00 0.00 0.00 95 1013.8
20260905100514 56 153 0.0 0.0 0.00 0.00 0.00 95 1013.6
20260905100008 56 152 0.0 0.0 0.00 0.00 0.00 95 1013.5
20260905095503 56 152 0.0 0.0 0.00 0.00 0.00 95 1013.4
20260905094957 56 152 0.0 0.0 0.00 0.00 0.00 95 1013.4
20260905094453 56 152 0.0 0.0 0.00 0.00 0.00 95 1013.3
20260905093951 56 152 0.0 0.0 0.00 0.00 0.00 95 1013.3
20260905093447 56 154 0.0 0.0 0.00 0.00 0.00 95 1013.1
20260905092943 56 153 0.0 0.0 0.00 0.00 0.00 95 1013.5
20260905092438 56 144 0.0 0.0 0.00 0.00 0.00 95 1013.4
20260905091932 56 144 0.0 0.0 0.00 0.00 0.00 95 1013.4
20260905091427 56 144 0.0 0.0 0.00 0.00 0.00 95 1013.4
20260905090926 56 144 0.0 0.0 0.00 0.00 0.00 95 1013.5
20260905090422 56 143 0.0 0.0 0.00 0.00 0.00 95 1013.6
20260905085921 56 142 0.0 0.0 0.00 0.00 0.00 95 1013.5
20260905085420 56 151 0.0 0.0 0.00 0.00 0.00 95 1013.6
20260905084917 56 166 0.0 0.0 0.00 0.00 0.00 95 1013.6
20260905084416 56 148 0.0 0.0 0.00 0.00 0.00 95 1013.5
20260905083911 56 145 0.0 0.0 0.00 0.00 0.00 95 1013.4
20260905083407 56 172 0.0 0.0 0.00 0.00 0.00 95 1013.5
20260905082902 56 171 0.0 0.0 0.00 0.00 0.00 95 1013.4
20260905082358 56 171 0.0 0.0 0.00 0.00 0.00 95 1013.6
20260905081853 56 171 0.0 0.0 0.00 0.00 0.00 95 1013.3
20260905081348 56 171 0.0 0.0 0.00 0.00 0.00 95 1013.5
20260905080846 56 172 0.0 0.0 0.00 0.00 0.00 95 1013.4
20260905080341 57 171 0.0 0.0 0.00 0.00 0.00 95 1013.4
20260905075839 57 172 0.0 0.0 0.00 0.00 0.00 95 1013.7
20260905075334 56 171 0.0 0.0 0.00 0.00 0.00 95 1013.9
20260905074833 57 171 0.0 0.0 0.00 0.00 0.00 95 1013.6
20260905074329 57 182 0.0 0.0 0.00 0.00 0.00 95 1013.7
20260905073825 57 182 0.0 0.0 0.00 0.00 0.00 95 1013.6
20260905073319 57 183 0.0 0.0 0.00 0.00 0.00 95 1013.6
20260905072814 58 182 0.0 0.0 0.00 0.00 0.00 95 1013.6
20260905072309 58 176 0.0 0.0 0.00 0.00 0.00 95 1013.8
20260905071806 58 175 0.0 0.0 0.00 0.00 0.00 95 1013.6
20260905071302 57 175 0.0 0.0 0.00 0.00 0.00 95 1013.6
20260905070756 58 174 0.0 0.0 0.00 0.00 0.00 95 1013.8
20260905070252 58 174 0.0 0.0 0.00 0.00 0.00 95 1013.6
20260905065751 58 174 0.0 0.0 0.00 0.00 0.00 95 1013.9
20260905065244 59 174 0.0 0.0 0.00 0.00 0.00 95 1014.1
20260905064740 59 174 0.0 0.0 0.00 0.00 0.00 95 1014.0
20260905064235 59 193 0.0 0.0 0.00 0.00 0.00 95 1013.5
20260905063728 59 187 0.0 0.0 0.00 0.00 0.00 95 1013.9
20260905063224 59 189 0.0 0.0 0.00 0.00 0.00 95 1014.0
20260905062720 59 188 0.0 0.0 0.00 0.00 0.00 95 1013.9
20260905062220 59 187 0.0 0.0 0.00 0.00 0.00 95 1014.1
20260905061714 59 183 0.0 0.0 0.00 0.00 0.00 95 1014.2
20260905061209 59 183 0.0 0.0 0.00 0.00 0.00 95 1014.3
20260905060704 59 154 0.0 0.0 0.00 0.00 0.00 95 1014.0
20260905060201 59 196 0.0 0.0 0.00 0.00 0.00 95 1014.1
20260905055659 59 196 0.0 0.0 0.00 0.00 0.00 95 1014.1
20260905055154 59 195 0.0 0.0 0.00 0.00 0.00 95 1014.2
20260905054649 59 195 0.0 0.0 0.00 0.00 0.00 95 1014.0
20260905054145 59 195 0.0 0.0 0.00 0.00 0.00 95 1014.1
20260905053645 59 196 0.0 0.0 0.00 0.00 0.00 95 1014.3
20260905053140 59 194 0.0 0.0 0.00 0.00 0.00 95 1014.2
20260905052639 59 178 0.0 0.0 0.00 0.00 0.00 95 1014.2
20260905052135 59 167 0.0 0.0 0.00 0.00 0.00 95 1014.2
20260905051629 59 167 0.0 0.0 0.00 0.00 0.00 95 1014.6
20260905051126 59 166 0.0 0.0 0.00 0.00 0.00 95 1014.2
20260905050622 59 194 0.0 0.0 0.00 0.00 0.00 95 1014.3
20260905050119 59 193 0.0 0.0 0.00 0.00 0.00 95 1014.4
20260905045618 60 186 0.0 0.0 0.00 0.00 0.00 95 1014.4
20260905045113 60 188 0.0 0.0 0.00 0.00 0.00 95 1014.4
20260905044608 60 197 0.0 0.0 0.00 0.00 0.00 95 1014.4
20260905044103 60 157 0.0 0.0 0.00 0.00 0.00 95 1014.5
20260905043601 60 181 0.0 0.0 0.00 0.00 0.00 95 1014.3
20260905043057 60 181 0.0 0.0 0.00 0.00 0.00 95 1014.4
20260905042555 60 181 0.0 0.0 0.00 0.00 0.00 95 1014.5
20260905042051 60 181 0.0 0.0 0.00 0.00 0.00 95 1014.6
20260905041546 60 184 0.0 0.0 0.00 0.00 0.00 95 1014.6
20260905041042 60 183 0.0 0.0 0.00 0.00 0.00 95 1014.5
20260905040541 61 187 0.0 0.0 0.00 0.00 0.00 95 1014.6
20260905040040 60 178 0.0 0.0 0.00 0.36 0.36 94 1014.6
20260905035535 61 174 0.0 0.0 0.00 0.36 0.36 94 1014.6
20260905035032 61 166 0.0 0.0 0.00 0.36 0.36 94 1014.6
20260905034527 61 176 0.0 0.0 0.00 0.36 0.36 94 1014.5
20260905034027 61 168 0.0 0.0 0.00 0.36 0.36 94 1014.6
20260905033521 61 167 0.0 0.0 0.00 0.36 0.36 93 1014.3
20260905033017 61 167 0.0 0.0 0.00 0.36 0.36 93 1014.6
20260905032512 61 167 0.0 0.0 0.00 0.36 0.36 93 1014.6
20260905032007 62 167 0.0 0.0 0.00 0.36 0.36 93 1014.5
20260905031503 62 167 0.0 0.0 0.00 0.36 0.36 93 1014.7
20260905030957 62 167 0.0 0.0 0.00 0.36 0.36 93 1014.4
20260905030453 62 168 0.0 0.0 0.00 0.36 0.36 92 1014.6
20260905025951 62 167 0.0 0.0 0.00 0.36 0.36 92 1014.4
20260905025448 62 168 0.0 0.0 0.00 0.36 0.36 92 1014.4
20260905024944 62 151 0.0 0.0 0.00 0.36 0.36 92 1014.5
20260905024444 62 150 0.0 0.0 0.00 0.36 0.36 92 1014.6
20260905023940 62 135 0.9 0.9 0.00 0.36 0.36 92 1014.5
20260905023434 62 129 0.9 1.7 0.00 0.36 0.36 91 1014.5
20260905022933 63 143 0.0 0.0 0.00 0.36 0.36 91 1014.2
20260905022429 63 154 0.0 0.9 0.00 0.36 0.36 90 1014.4
20260905021924 63 155 0.0 0.0 0.00 0.36 0.36 90 1014.6
20260905021424 64 158 0.0 0.0 0.00 0.36 0.36 90 1014.5
20260905020919 64 164 0.0 0.0 0.00 0.36 0.36 89 1014.4
20260905020418 64 163 0.0 0.0 0.00 0.36 0.36 89 1014.5
20260905015913 64 93 0.9 0.9 0.00 0.36 0.36 89 1014.2
20260905015411 65 142 0.0 0.0 0.00 0.36 0.36 89 1014.8
20260905014910 65 105 0.0 0.0 0.00 0.36 0.36 89 1014.8
20260905014406 66 152 0.0 0.0 0.00 0.36 0.36 89 1014.8
20260905013901 66 152 0.0 0.0 0.00 0.36 0.36 88 1014.8
20260905013357 66 153 0.0 0.0 0.00 0.36 0.36 88 1014.8
20260905012852 66 156 0.0 0.0 0.00 0.36 0.36 88 1014.8
20260905012348 66 137 0.0 0.0 0.00 0.36 0.36 88 1014.8
20260905011844 66 150 0.0 0.0 0.00 0.36 0.36 88 1014.8
20260905011339 66 150 0.0 0.0 0.00 0.36 0.36 88 1014.4
20260905010835 66 149 0.0 0.0 0.00 0.36 0.36 87 1014.5
20260905010330 66 150 0.0 0.0 0.00 0.36 0.36 87 1014.4
20260905005826 66 150 0.0 0.0 0.00 0.36 0.36 87 1014.3
20260905005322 66 150 0.0 0.0 0.00 0.36 0.36 87 1014.5
20260905004816 66 150 0.0 0.0 0.00 0.36 0.36 87 1014.5
20260905004311 66 150 0.0 0.0 0.00 0.36 0.36 87 1014.6
20260905003806 66 111 0.0 0.0 0.00 0.36 0.36 87 1014.4
20260905003303 66 147 0.0 0.0 0.00 0.36 0.36 87 1014.5
20260905002758 67 150 0.0 0.0 0.00 0.36 0.36 86 1014.3
20260905002257 67 156 0.0 0.0 0.00 0.36 0.36 86 1014.4
20260905001752 67 157 0.0 0.0 0.00 0.36 0.36 85 1014.2
20260905001252 67 157 0.0 0.0 0.00 0.36 0.36 84 1014.4
20260905000747 67 144 0.0 0.0 0.00 0.36 0.36 84 1014.2
20260905000243 67 159 0.0 0.0 0.00 0.36 0.36 83 1014.2
20260904235738 67 158 0.0 0.0 0.00 0.36 0.36 84 1014.1
20260904235232 67 182 0.0 0.0 0.00 0.36 0.36 84 1014.2
20260904234727 67 147 0.0 0.0 0.00 0.36 0.36 82 1014.1
20260904234222 67 109 0.0 0.0 0.00 0.36 0.36 82 1013.9
20260904233718 68 148 0.0 0.0 0.00 0.36 0.36 82 1014.2
20260904233214 68 148 0.0 0.0 0.00 0.36 0.36 82 1014.0